Weather in Zmeyskaya

Russia / Republic of North Ossetia — Alania     43°20′08″N   44°09′29″E
temp.,
°C
wind,
m/s
gust,
m/s
humid.,
%
clouds,
%
prec.,
mm/h
press.,
hPa
HPBL,
m
8 august, mon
mon800:00+18s009288 0.6 101211
03:00+18wsw119174 0.8 101211
06:00+18wnw019072 0.0 101339
09:00+22n127511 1.1 1014426
12:00+25e335528 1.4 10141393
15:00+26sse235069 3.1 10141438
18:00+23se236716 0.6 1014182
21:00+19se12802 0.6 101511
9 august, tue
tue900:00+17ssw22850 0.0 101516
03:00+16sse11840 0.0 101511
06:00+17sse11800 0.0 101631
09:00+24ese23570 0.0 1015614
12:00+28se45340 0.0 10142059
15:00+30sse45334 0.0 10132264
18:00+27sw345147 0.0 1012150
21:00+21se22650 0.0 101313
10 august, wed
wed1000:00+18s11680 0.0 101311
03:00+17s11710 0.0 101211
06:00+18sse11700 0.0 101212
09:00+25nne11490 0.0 1011583
12:00+29se34380 0.0 10091472
15:00+30ssw43395 0.1 1008978
18:00+29s22501 0.1 100872
21:00+19se33771 0.5 101044
11 august, thu
thu1100:00+18nne11770 0.0 100911
03:00+18wsw11790 0.0 100911
06:00+18nw11773 0.0 101013
09:00+25nnw11505 0.0 1009545
12:00+31se11385 0.0 10081258
15:00+32sse32380 0.0 10071171
18:00+30ssw34460 0.0 1008166
21:00+24ese11600 0.0 100912
12 august, fri
fri1200:00+22w22670 0.1 101015
03:00+19nw22840 0.1 101118
06:00+20nw12790 0.0 101247
09:00+26nnw11540 0.0 1012660
12:00+31ese23415 0.0 10101390
15:00+33s43400 0.0 10091304
18:00+32sw34450 0.0 1009286
21:00+21ese37700 0.4 1012125